Home   Weather   Bullhead City   Past weeks
Flag for USA

Past Weather in Bullhead City, Arizona, USA — Yesterday and Last 2 Weeks

Now
46 °F

Clear.


Feels Like: 45 °F
Forecast: 64 / 47 °F
Wind: 3 mph from Southeast

Location: Laughlin/Bullhead International Airport

Current Time: Dec 11, 2019 at 7:01:37 am

Latest Report: Dec 11, 2019 at 6:15 am


Visibility: 10 mi

Pressure: 30.22 "Hg

Humidity: 76%

Dew Point: 39 °F

Location of Bullhead CityLocation

Past Weather in Bullhead City — Graph

°F

Bullhead City Temperature Yesterday

Maximum temperature yesterday: 63 °F (at 12:50 pm)
Minimum temperature yesterday: 54 °F (at 6:35 am)
Average temperature yesterday: 57 °F

High & Low Weather Summary for the Past Weeks

 TemperatureHumidityPressure
High66 °F (Dec 6, 2:51 pm)100% (Dec 5, 2:35 am)30.28 "Hg (Dec 5, 2:35 am)
Low39 °F (Nov 30, 4:55 am)16% (Nov 27, 1:50 pm)29.42 "Hg (Nov 28, 4:48 pm)
Average55 °F63%30.02 "Hg
* Reported Nov 26 5:54 am — Dec 11 5:55 am, Bullhead City. Weather by CustomWeather, © 2019

Note: Actual official high and low records may vary slightly from our data, if they occured in-between our weather recording intervals... More about our weather records

Bullhead City Weather History for the Previous 24 Hours

Scroll right to see more
 ConditionsComfort  
Time TempWeatherWind HumidityBarometerVisibility
5:55 am
Wed, Dec 11
45 °FClear.No wind81%30.21 "Hg10 mi
5:35 am46 °FClear.No wind76%30.21 "Hg10 mi
5:10 am46 °FClear.5 mph76%30.20 "Hg10 mi
4:55 am46 °FClear.5 mph76%30.20 "Hg10 mi
4:35 am48 °FClear.3 mph71%30.21 "Hg10 mi
3:55 am48 °FClear.No wind71%30.21 "Hg10 mi
3:35 am48 °FClear.No wind71%30.21 "Hg10 mi
3:15 am48 °FClear.No wind71%30.21 "Hg10 mi
2:55 am48 °FClear.5 mph71%30.21 "Hg10 mi
2:35 am48 °FClear.5 mph71%30.22 "Hg10 mi
2:15 am48 °FClear.No wind76%30.22 "Hg10 mi
1:55 am48 °FClear.No wind76%30.22 "Hg10 mi
1:35 am50 °FClear.No wind71%30.22 "Hg10 mi
1:15 am52 °FClear.No wind62%30.23 "Hg10 mi
12:55 am50 °FClear.3 mph67%30.23 "Hg10 mi
12:35 am52 °FClear.No wind62%30.23 "Hg10 mi
12:10 am54 °FClear.No wind58%30.23 "Hg10 mi
11:55 pm
Tue, Dec 10
54 °FClear.6 mph63%30.24 "Hg10 mi
11:35 pm55 °FClear.5 mph51%30.24 "Hg10 mi
11:15 pm55 °FClear.No wind51%30.24 "Hg10 mi
10:55 pm55 °FClear.5 mph51%30.23 "Hg10 mi
10:35 pm55 °FClear.7 mph51%30.23 "Hg10 mi
10:15 pm57 °FClear.7 mph44%30.24 "Hg10 mi
9:35 pm57 °FClear.12 mph44%30.23 "Hg10 mi
9:15 pm57 °FClear.14 mph44%30.23 "Hg10 mi
8:55 pm59 °FClear.12 mph42%30.23 "Hg10 mi
8:30 pm59 °FClear.15 mph42%30.23 "Hg10 mi
8:10 pm59 °FClear.14 mph42%30.23 "Hg10 mi
7:55 pm59 °FClear.13 mph42%30.23 "Hg10 mi
7:35 pm59 °FClear.10 mph42%30.23 "Hg10 mi
7:15 pm59 °FClear.12 mph42%30.23 "Hg10 mi
6:55 pm59 °FClear.9 mph42%30.22 "Hg10 mi
6:35 pm57 °FClear.8 mph55%30.22 "Hg10 mi
6:15 pm57 °FClear.5 mph55%30.22 "Hg10 mi
5:55 pm59 °FClear.5 mph48%30.22 "Hg10 mi
4:52 pm63 °FPartly sunny.12 mph32%30.20 "Hg10 mi
3:52 pm63 °FPartly sunny.13 mph32%30.20 "Hg10 mi
2:52 pm63 °FPartly sunny.17 mph32%30.21 "Hg10 mi
1:52 pm63 °FPartly sunny.21 mph32%30.22 "Hg10 mi
12:50 pm63 °FPartly sunny.18 mph32%30.24 "Hg10 mi
11:52 am59 °FScattered clouds.23 mph39%30.27 "Hg10 mi
10:52 am59 °FScattered clouds.21 mph39%30.28 "Hg10 mi
9:51 am55 °FSunny.16 mph47%30.26 "Hg10 mi
8:50 am55 °FSunny.17 mph44%30.25 "Hg10 mi
7:51 am54 °FSunny.15 mph47%30.23 "Hg10 mi
7:35 am54 °FSunny.17 mph47%30.22 "Hg10 mi
7:15 am54 °FClear.17 mph47%30.22 "Hg10 mi
Weather by CustomWeather, © 2019

See weather overview

Advertising